Date String (YYYY-MM-DD hh:mm:ss) UTC,Instrument flags,absolute air pressure of the measurement (hPa),sample flow rate (lpm),inlet stack bypass flow (lpm),air temperature of the measurement (°C),ambient temperature measured by the external sensor (°C),aerosol sample conditioner tube jacket temperature (°C),OPC LED temperature (°C),internal box temperature (°C),relative humidity of the measurement (%),span deviation,mass concentration of particles derived from Lorenz-Mie calculation of OPC scattering (μg/m³),mass concentration of particles derived from Lorenz-Mie calculation of OPC scattering (μg/m³),mass concentration of particles derived from Lorenz-Mie calculation of OPC scattering (μg/m³)
DateTimeUTC,F1_M11,P_M11,Q1_M11,Q2_M11,T1_M11,T2_M11,T3_M11,T4_M11,T5_M11,U1_M11,ZSPAN_M11,X0_M11,X2_M11,X1_M11
2023-08-01 12:00:00,SystemResetWarning,0835.5,5.01,000.00,029.7,028.6,000.0,038.1,031.3,34.6,0000.0,0003.77,0000.95,0000.64
2023-08-01 12:01:00,SystemResetWarning,0835.5,5.00,000.00,029.8,028.6,000.0,038.1,031.4,34.8,0000.0,0006.69,0000.98,0000.67
2023-08-01 12:02:00,SystemResetWarning,0835.5,5.00,000.00,029.8,028.6,000.0,038.2,031.4,34.9,0000.0,0007.26,0001.05,0000.70
2023-08-01 12:03:00,SystemResetWarning,0835.6,5.00,000.00,029.8,028.6,000.0,038.2,031.4,34.9,0000.0,0007.42,0001.14,0000.72
2023-08-01 12:04:00,SystemResetWarning,0835.5,5.00,000.00,029.8,028.6,000.0,038.2,031.4,34.8,0000.0,0008.34,0001.23,0000.75
2023-08-01 12:05:00,SystemResetWarning,0835.4,4.99,000.00,029.9,028.7,000.0,038.2,031.4,34.5,0000.0,0008.70,0001.30,0000.76
2023-08-01 12:06:00,SystemResetWarning,0835.2,4.99,000.00,029.9,028.7,000.0,038.2,031.5,34.6,0000.0,0008.65,0001.31,0000.77
2023-08-01 12:07:00,SystemResetWarning,0835.3,4.99,000.00,029.9,028.7,000.0,038.3,031.5,34.4,0000.0,0008.10,0001.35,0000.78
2023-08-01 12:08:00,SystemResetWarning,0835.2,5.00,000.00,029.9,028.7,000.0,038.3,031.5,34.5,0000.0,0007.99,0001.36,0000.80
2023-08-01 12:09:00,SystemResetWarning,0835.2,5.01,000.00,029.9,028.8,000.0,038.3,031.5,34.5,0000.0,0008.06,0001.39,0000.81
2023-08-01 12:10:00,SystemResetWarning,0835.3,5.00,000.00,030.0,028.8,000.0,038.3,031.5,34.5,0000.0,0008.06,0001.40,0000.80
2023-08-01 12:11:00,SystemResetWarning,0835.2,4.99,000.00,030.0,028.8,000.0,038.3,031.6,34.1,0000.0,0007.68,0001.36,0000.79
2023-08-01 12:12:00,SystemResetWarning,0835.2,5.00,000.00,030.0,028.8,000.0,038.4,031.6,34.3,0000.0,0005.21,0001.36,0000.78
2023-08-01 12:13:00,SystemResetWarning,0835.3,5.00,000.00,030.0,028.8,000.0,038.4,031.6,34.4,0000.0,0004.66,0001.32,0000.76
2023-08-01 12:14:00,SystemResetWarning,0835.5,5.00,000.00,030.0,028.9,000.0,038.4,031.6,34.5,0000.0,0004.55,0001.32,0000.75
2023-08-01 12:15:00,SystemResetWarning,0835.5,4.99,000.00,030.1,028.9,000.0,038.4,031.6,34.6,0000.0,0002.96,0001.29,0000.74
2023-08-01 12:16:00,SystemResetWarning,0835.5,4.99,000.00,030.1,027.6,000.0,038.3,031.5,34.5,0000.0,0002.81,0001.28,0000.74
2023-08-01 12:17:00,SystemResetWarning,0835.5,5.00,000.00,030.0,026.0,000.0,038.2,031.3,34.6,0000.0,0003.15,0001.37,0000.78
2023-08-01 12:18:00,SystemResetWarning,0835.6,5.00,000.00,029.9,025.7,000.0,038.2,031.0,34.7,0000.0,0003.40,0001.52,0000.86
2023-08-01 12:19:00,SystemResetWarning,0835.5,5.00,000.00,029.8,025.9,000.0,038.2,030.9,35.2,0000.0,0003.62,0001.69,0000.96
2023-08-01 12:20:00,SystemResetWarning,0835.7,5.03,000.00,029.9,026.3,000.0,038.2,031.0,35.0,0000.0,0003.73,0001.82,0001.06
2023-08-01 12:21:00,SystemResetWarning,0835.6,4.96,000.00,030.1,026.7,000.0,038.3,031.2,34.6,0000.0,0003.86,0001.97,0001.18
2023-08-01 12:22:00,SystemResetWarning,0835.6,5.02,000.00,030.2,027.0,000.0,038.3,031.2,34.3,0000.0,0004.09,0002.11,0001.29
2023-08-01 12:23:00,SystemResetWarning,0835.7,5.00,000.00,030.3,027.3,000.0,038.3,031.3,34.2,0000.0,0004.27,0002.25,0001.40
2023-08-01 12:24:00,SystemResetWarning,0835.7,5.00,000.00,030.3,027.6,000.0,038.3,031.3,33.8,0000.0,0004.51,0002.39,0001.51
2023-08-01 12:25:00,SystemResetWarning,0835.6,5.00,000.00,030.3,027.8,000.0,038.4,031.3,33.8,0000.0,0004.75,0002.52,0001.62
2023-08-01 12:26:00,SystemResetWarning,0835.7,5.00,000.00,030.4,028.0,000.0,038.4,031.4,33.7,0000.0,0004.78,0002.59,0001.70
2023-08-01 12:27:00,SystemResetWarning,0835.5,5.00,000.00,030.4,028.2,000.0,038.5,031.4,33.6,0000.0,0004.68,0002.70,0001.78
2023-08-01 12:28:00,SystemResetWarning,0835.5,5.00,000.00,030.4,028.3,000.0,038.5,031.4,33.5,0000.0,0004.55,0002.74,0001.83
2023-08-01 12:29:00,SystemResetWarning,0835.6,4.99,000.00,030.4,028.4,000.0,038.6,031.5,33.4,0000.0,0004.48,0002.70,0001.82
2023-08-01 12:30:00,SystemResetWarning,0835.6,5.00,000.00,030.5,028.5,000.0,038.6,031.5,33.6,0000.0,0004.39,0002.67,0001.80
2023-08-01 12:31:00,SystemResetWarning,0835.7,5.01,000.00,030.5,028.6,000.0,038.6,031.5,33.2,0000.0,0004.29,0002.65,0001.79
2023-08-01 12:32:00,SystemResetWarning,0835.6,5.00,000.00,030.5,028.6,000.0,038.7,031.6,34.6,0000.0,0004.33,0002.56,0001.77
2023-08-01 12:33:00,SystemResetWarning,0835.6,5.01,000.00,030.6,028.7,000.0,038.7,031.6,35.5,0000.0,0004.35,0002.52,0001.75
2023-08-01 12:34:00,SystemResetWarning,0835.7,5.02,000.00,030.8,027.6,000.0,038.6,031.7,35.1,0000.0,0004.35,0002.50,0001.74
2023-08-01 12:35:00,SystemResetWarning,0835.5,4.97,000.00,031.0,026.1,000.0,038.5,031.6,34.4,0000.0,0004.24,0002.45,0001.73
2023-08-01 12:36:00,SystemResetWarning,0835.5,5.02,000.00,031.1,025.6,000.0,038.5,031.3,33.7,0000.0,0004.11,0002.40,0001.72
2023-08-01 12:37:00,SystemResetWarning,0835.5,5.00,000.00,031.0,025.8,000.0,038.6,031.1,33.6,0000.0,0004.38,0002.46,0001.73
2023-08-01 12:38:00,SystemResetWarning,0835.4,5.00,000.00,031.0,026.2,000.0,038.7,031.1,33.8,0000.0,0004.62,0002.48,0001.73
2023-08-01 12:39:00,SystemResetWarning,0835.4,5.01,000.00,031.0,026.6,000.0,038.7,031.2,33.4,0000.0,0004.79,0002.53,0001.75
2023-08-01 12:40:00,SystemResetWarning,0835.5,4.99,000.00,031.0,026.9,000.0,038.8,031.3,33.2,0000.0,0004.82,0002.56,0001.76
2023-08-01 12:41:00,SystemResetWarning,0835.5,4.99,000.00,031.0,027.3,000.0,038.8,031.3,32.8,0000.0,0004.81,0002.57,0001.79
2023-08-01 12:42:00,SystemResetWarning,0835.5,5.00,000.00,030.9,027.5,000.0,038.9,031.4,32.6,0000.0,0004.72,0002.52,0001.79
2023-08-01 12:43:00,SystemResetWarning,0835.6,5.00,000.00,030.9,027.8,000.0,038.9,031.4,33.2,0000.0,0004.59,0002.51,0001.80
2023-08-01 12:44:00,SystemResetWarning,0835.6,5.01,000.00,030.9,028.0,000.0,039.0,031.4,33.8,0000.0,0004.68,0002.54,0001.80
2023-08-01 12:45:00,SystemResetWarning,0835.6,5.01,000.00,030.9,028.1,000.0,039.0,031.5,34.4,0000.0,0005.86,0002.53,0001.81
2023-08-01 12:46:00,SystemResetWarning,0835.8,5.00,000.00,030.9,028.2,000.0,039.0,031.5,34.8,0000.0,0005.99,0002.59,0001.83
2023-08-01 12:47:00,SystemResetWarning,0835.7,4.99,000.00,030.9,028.3,000.0,039.0,031.5,34.9,0000.0,0006.17,0002.68,0001.85
2023-08-01 12:48:00,SystemResetWarning,0835.7,4.98,000.00,030.9,028.4,000.0,039.0,031.6,35.0,0000.0,0006.06,0002.68,0001.85
2023-08-01 12:49:00,SystemResetWarning,0835.6,5.03,000.00,031.0,028.5,000.0,039.1,031.6,34.7,0000.0,0005.67,0002.65,0001.86
2023-08-01 12:50:00,SystemResetWarning,0835.6,4.98,000.00,031.0,028.5,000.0,039.1,031.7,34.5,0000.0,0005.57,0002.63,0001.86
2023-08-01 12:51:00,SystemResetWarning,0835.6,5.00,000.00,031.1,028.6,000.0,039.1,031.7,34.4,0000.0,0005.54,0002.64,0001.87
2023-08-01 12:52:00,SystemResetWarning,0835.6,5.01,000.00,031.1,028.6,000.0,039.1,031.7,34.3,0000.0,0005.77,0002.75,0001.92
2023-08-01 12:53:00,SystemResetWarning,0835.6,5.00,000.00,031.1,028.6,000.0,039.1,031.8,34.3,0000.0,0006.68,0002.87,0001.99
2023-08-01 12:54:00,SystemResetWarning,0835.5,4.98,000.00,031.1,027.2,000.0,039.0,031.7,34.4,0000.0,0007.24,0003.02,0002.07
2023-08-01 12:55:00,SystemResetWarning,0835.5,5.01,000.00,031.0,025.9,000.0,038.9,031.4,34.7,0000.0,0007.37,0003.14,0002.16
2023-08-01 12:56:00,SystemResetWarning,0835.5,4.99,000.00,030.9,025.6,000.0,038.9,031.1,35.1,0000.0,0006.24,0003.22,0002.23
2023-08-01 12:57:00,SystemResetWarning,0835.5,5.04,000.00,030.8,025.9,000.0,038.9,031.1,35.0,0000.0,0006.44,0003.27,0002.30
2023-08-01 12:58:00,SystemResetWarning,0835.4,4.96,000.00,030.9,026.3,000.0,038.9,031.2,34.6,0000.0,0006.54,0003.30,0002.36
2023-08-01 12:59:00,SystemResetWarning,0835.4,5.02,000.00,031.0,026.6,000.0,038.9,031.3,34.4,0000.0,0006.56,0003.31,0002.41
